Starlink 5287

operational
NORAD ID: 55293 Int'l Des: 2023-010 Owner: SPXS Country: US Constellation: starlink
LEOCIRCULAR

关于 Starlink 5287

正在加载描述...

实时位置

正在加载3D地球...

即将过境

高度历史

Altitude vs Time

uPlot chart will show altitude changes over time

两行轨道根数

1 55293U 23010AA 25305.47119233 .00004468 00000-0 38204-3 0 9997
2 55293 69.9996 347.7265 0003071 261.8703 98.2107 14.98323831154061
Epoch: Nov 1, 2025 • Age: 11 hours

当前状态

高度 591.2 km
速度 7.56 km/s
星下点 -56.02°S, 172.31°W
发射日期 Jan 19, 2023
运行时间 2.7 years
类型 internet

技术详情

分类 Payload
质量 305.00 kg
干质量 290.00 kg
总质量 305.00 kg
长度 0.20 m
直径 2.80 m
跨度 9.00 m
形状 Box + pan
制造商 SPXS
平台类型 Starlink
阶段状态 In Orbit
所有者/国家 SPXS/US

大型星座

Loading constellations...